Lapse_Rate
4.4 4.9 4.8 5.5 5.4 5.3 6.1 5.9 6.3 6.5 6.9 7.1 6.9 6.8 6.9 7.4 7.6 7.6 7.5 7.5 7.5 7.8 7.7 7.7 8.2 8.4 8.3 8.7 8.7 8.7 8.7 8.8 8.4 8.5 8.7 8.6 8.5 8.2 7.8 7.5 7.6 7.6 7.6 7.6
4.0 4.2 5.0 5.0 5.1 5.1 5.4 5.9 5.9 6.2 6.8 7.1 7.4 7.0 7.2 7.1 7.2 7.5 7.5 7.5 7.5 7.5 7.7 8.2 8.1 8.4 8.7 8.9 8.7 8.1 8.2 8.4 8.4 8.7 8.8 8.6 8.2 7.9 7.4 7.2 7.0 7.4 7.6 7.3
4.3 4.2 4.2 4.5 4.6 4.7 5.0 5.1 5.5 5.8 6.6 7.0 7.3 6.8 7.3 6.9 7.0 7.3 7.4 7.5 7.3 7.4 8.0 7.9 8.0 8.4 8.7 8.5 8.4 8.3 8.1 8.1 8.2 8.7 8.7 8.4 8.3 7.9 7.9 7.9 7.3 7.4 7.4 7.3
4.3 4.3 4.3 4.4 4.4 4.9 4.7 5.3 5.5 5.9 6.2 6.1 7.4 6.3 6.7 6.7 6.9 7.2 7.2 7.3 7.4 7.9 7.8 7.8 8.2 8.3 8.6 8.7 8.7 8.2 8.4 7.9 8.2 8.7 8.5 8.4 8.3 8.1 8.1 7.6 7.3 7.6 7.4 6.8
4.5 5.2 5.1 4.9 4.7 5.1 4.6 5.4 5.7 6.0 6.3 6.5 6.6 6.8 5.5 6.5 6.5 7.0 7.2 7.6 7.9 7.7 7.7 7.9 8.1 8.3 8.6 8.5 8.6 8.3 8.3 8.2 8.4 8.5 8.4 8.5 8.5 8.4 8.0 7.3 7.5 7.2 6.9 6.8
6.0 6.4 6.3 5.6 5.6 5.3 5.0 5.5 5.9 6.4 6.6 5.9 5.8 6.4 5.4 6.3 6.9 7.0 7.8 7.8 7.7 7.7 7.6 7.9 8.2 8.3 8.7 8.6 8.5 8.3 8.5 8.3 8.5 8.5 8.4 8.4 8.4 8.0 7.4 7.5 7.4 7.1 6.7 6.6
7.5 7.9 6.6 6.0 5.7 5.6 5.1 5.4 5.6 5.6 5.6 4.6 6.5 6.3 5.3 6.8 7.3 7.6 7.6 7.4 7.4 7.3 7.8 8.2 8.2 8.4 8.4 8.5 8.3 8.2 8.4 8.4 8.4 8.3 8.2 8.1 7.7 7.3 7.4 7.2 6.8 6.6 6.4 6.2
8.4 7.8 7.0 6.5 6.2 5.9 5.8 6.2 5.6 4.1 4.4 5.1 6.4 5.6 5.6 6.8 7.9 7.8 7.6 7.6 7.2 7.5 8.0 7.9 8.3 8.4 8.2 8.1 8.1 8.2 8.3 8.4 8.2 8.1 7.9 7.5 7.2 7.3 7.1 6.8 6.6 6.5 6.2 6.0
8.3 8.0 7.3 7.0 6.8 6.0 6.1 5.7 5.5 5.9 6.4 5.5 6.1 6.1 6.2 7.2 7.9 8.5 8.0 7.6 7.6 7.7 7.8 8.2 8.3 8.3 8.3 8.3 8.2 8.1 8.1 8.1 7.8 7.7 7.3 7.3 7.1 6.9 6.6 6.5 6.3 6.1 5.9 6.0
7.7 7.4 8.0 8.4 7.2 6.5 6.1 6.3 7.3 6.4 5.8 4.7 5.3 6.0 6.3 8.0 8.4 8.5 8.4 8.1 8.0 8.0 7.8 8.3 8.2 8.2 8.2 8.1 8.0 8.0 7.9 7.6 7.4 7.2 7.0 6.9 6.7 6.6 6.5 6.3 6.1 6.1 5.9 6.1
7.8 7.7 7.4 7.7 7.4 7.0 6.6 7.4 7.0 7.2 6.8 5.4 4.2 5.6 8.1 8.4 8.5 8.8 8.6 8.4 8.3 7.9 8.2 8.2 8.1 8.1 8.1 8.1 8.0 7.8 7.5 7.3 7.2 6.9 6.9 6.8 6.7 6.5 6.5 6.3 6.3 6.1 6.0 5.9
7.5 7.3 7.3 7.6 7.7 7.6 7.3 7.0 6.8 6.1 5.8 6.1 5.7 5.3 8.3 8.7 8.4 8.6 8.6 8.7 8.2 8.4 8.4 8.3 8.4 8.5 8.3 8.1 7.7 7.5 7.2 7.1 6.9 6.8 6.9 6.8 6.8 6.7 6.4 6.1 6.2 6.0 5.9 6.0
7.4 7.1 6.9 7.6 8.1 7.4 6.6 7.0 6.8 6.0 6.3 5.5 5.7 5.9 8.8 8.3 8.5 9.4 9.0 8.8 8.7 8.8 8.6 8.4 8.5 8.5 8.2 7.8 7.6 7.3 6.9 7.0 6.8 6.9 6.8 6.8 6.6 6.4 6.1 6.0 6.1 6.0 6.0 5.9
7.0 7.0 6.9 6.3 7.6 7.0 7.2 7.0 6.6 6.1 5.6 5.6 5.1 6.6 8.5 8.3 8.3 8.5 9.0 8.8 8.9 9.0 8.9 8.7 8.6 8.4 7.9 7.6 7.4 7.1 7.0 6.9 6.8 6.9 7.0 6.6 6.2 5.9 5.9 5.9 6.2 6.1 6.0 5.9
7.2 6.9 6.9 7.0 7.0 6.8 6.7 6.8 6.4 5.6 5.4 4.2 5.9 7.1 7.6 8.3 8.0 8.1 8.5 8.6 8.7 8.8 8.6 8.7 8.6 8.3 7.7 7.4 7.2 7.0 6.9 6.8 6.7 6.9 5.8 6.1 6.0 6.0 6.0 6.1 6.2 6.2 5.9 6.0
7.2 6.8 7.0 7.0 7.2 7.2 6.9 8.0 7.2 6.1 5.3 4.0 6.1 7.2 8.0 8.1 8.2 8.0 8.6 8.5 8.6 8.8 8.7 8.6 8.3 7.9 7.6 7.1 7.0 6.9 6.9 6.7 6.6 5.4 5.5 5.9 6.2 6.3 6.4 6.4 6.3 6.3 6.1 6.1
6.8 6.8 6.7 6.7 7.0 7.4 6.9 8.0 7.8 7.2 6.8 6.1 6.4 7.2 8.0 7.8 8.0 7.8 8.9 8.4 8.7 8.8 8.8 8.5 8.0 7.7 7.3 7.1 7.0 7.0 6.8 6.6 6.4 5.7 5.5 6.1 6.1 6.4 6.6 6.4 6.3 6.3 6.2 6.1
6.7 6.8 6.8 6.5 6.3 6.9 7.2 7.6 7.9 8.1 8.2 7.2 7.3 7.9 7.6 7.5 7.4 8.0 8.2 8.5 8.9 8.9 8.7 8.3 7.8 7.4 7.1 7.1 7.1 7.0 6.7 6.5 6.0 5.4 5.8 5.9 6.2 6.5 6.5 6.3 6.2 6.2 6.1 6.1
6.9 6.7 6.4 6.5 6.9 7.0 7.2 7.3 7.6 8.5 8.3 7.3 7.7 8.0 7.4 7.3 7.5 6.2 7.7 7.6 8.2 8.7 8.4 8.0 7.7 7.2 7.0 6.9 7.0 6.9 6.8 6.4 5.9 5.6 5.9 5.8 6.1 6.2 6.4 6.3 6.1 6.1 6.1 6.1
7.0 6.5 6.0 6.2 6.3 6.2 6.8 6.6 6.6 7.3 7.9 7.4 7.3 7.7 7.2 7.7 7.2 7.5 6.9 7.7 8.0 8.1 8.2 8.1 7.7 7.3 7.0 6.9 6.9 6.9 6.9 6.4 6.2 6.0 5.9 5.9 6.1 6.1 6.3 6.2 5.9 6.0 6.0 6.1
6.5 6.5 6.2 6.0 6.1 6.4 5.5 5.9 6.6 6.8 7.0 6.7 7.1 6.9 6.6 7.0 7.2 7.4 7.7 8.0 8.0 8.3 8.5 7.8 7.7 7.4 7.0 6.9 7.1 7.1 6.9 6.7 6.7 6.3 6.0 6.1 6.2 6.1 6.2 5.9 5.7 5.8 5.9 5.9
6.3 6.2 6.2 5.9 5.9 5.9 5.5 5.7 6.7 6.2 6.7 6.4 6.4 6.6 6.1 6.9 6.7 6.9 7.7 8.0 8.0 8.3 8.1 7.8 7.5 7.2 7.1 7.0 7.3 7.3 7.0 7.0 7.0 6.2 6.1 6.3 6.2 6.4 6.1 6.1 5.9 5.8 5.8 5.8
6.1 5.9 5.8 5.8 5.8 5.8 4.8 5.8 6.2 6.2 6.1 5.3 6.2 6.0 5.9 5.3 6.4 7.2 7.7 7.6 8.0 8.4 8.1 7.8 7.6 7.2 7.1 7.2 7.4 7.4 7.4 7.4 7.2 6.6 6.3 6.3 6.4 6.6 6.4 6.4 6.1 5.8 5.8 5.9
5.8 6.0 6.0 5.9 5.7 5.5 5.5 5.7 5.7 4.9 5.0 5.1 5.3 6.2 6.3 6.5 7.0 7.0 7.4 8.0 7.8 8.3 8.3 8.1 7.9 7.5 7.2 7.3 7.5 7.5 7.5 7.7 7.5 6.9 6.5 6.5 6.5 6.7 6.6 6.7 6.5 6.3 6.1 6.0
5.6 5.9 6.1 6.1 5.9 5.9 5.6 5.0 5.3 5.0 5.2 5.1 5.5 6.1 6.5 6.8 6.9 7.1 7.4 7.9 7.9 8.2 8.4 8.2 8.0 7.8 7.4 7.4 7.5 7.6 7.6 7.8 7.7 7.2 6.9 6.8 6.7 6.7 6.8 6.9 6.7 6.7 6.2 5.8
5.8 5.9 5.9 6.0 6.2 5.7 5.7 5.8 5.1 5.4 5.1 5.2 5.6 6.2 6.7 6.8 6.9 7.4 7.8 7.8 7.8 8.1 8.2 8.2 8.0 7.8 7.7 7.5 7.5 7.6 7.7 7.9 7.8 7.5 7.2 7.1 6.9 6.7 6.7 7.1 6.8 6.9 7.1 6.6
Wind_Speed
4 4 18 27 16 8 10 11 10 5 10 11 22 24 21 17 16 12 13 17 19 19 17 11 8 8 9 9 9 10 10 8 10 8 7 7 6 6 5 5 8 7 4 7
4 19 12 9 6 10 14 16 19 6 9 15 18 28 24 23 22 19 21 20 17 15 9 10 9 9 9 9 9 8 9 13 11 9 8 4 6 3 5 5 8 9 7 7
11 6 8 15 12 16 16 19 12 8 12 22 9 19 8 15 11 10 10 15 10 12 11 10 10 12 6 9 9 9 9 9 8 11 8 5 5 4 3 2 3 5 7 7
10 11 14 14 16 18 19 13 13 16 13 13 8 19 22 14 22 16 12 11 12 14 9 10 12 7 9 7 6 8 10 11 8 11 10 13 5 5 3 4 3 5 6 7
11 9 4 14 17 15 19 10 16 13 8 15 16 6 25 10 16 17 15 14 11 11 11 11 10 8 6 10 9 10 11 9 7 9 11 8 6 3 3 3 8 6 4 5
14 11 14 12 12 11 6 9 15 12 2 8 14 11 9 14 15 8 9 9 11 11 10 8 4 9 10 9 11 11 12 8 8 9 9 9 9 6 5 5 5 4 3 3
7 13 11 12 12 10 4 1 3 2 5 16 12 10 21 9 8 15 16 15 14 8 4 7 11 12 11 12 12 10 12 9 9 10 9 8 8 8 9 7 5 6 3 2
5 5 6 2 1 7 7 9 5 7 4 4 12 9 7 16 20 26 21 18 4 5 6 7 7 9 12 13 10 10 11 10 10 9 8 7 9 6 5 5 4 4 4 3
5 3 6 9 6 4 4 10 5 6 15 2 5 8 9 19 24 21 19 8 8 8 9 11 10 10 11 10 11 11 10 10 10 9 8 7 7 8 7 7 6 4 3 3
4 4 4 6 6 4 7 5 5 3 7 6 5 6 8 7 11 12 12 10 8 8 11 11 11 11 9 9 9 9 9 11 9 8 8 8 8 7 7 6 6 5 4 4
3 2 4 4 4 6 3 1 3 3 4 8 3 6 11 11 13 18 8 14 16 14 13 12 11 10 10 10 9 8 8 9 8 8 7 8 7 8 6 6 5 6 4 4
2 1 3 8 11 12 4 6 5 3 6 5 2 12 17 8 12 12 14 16 13 13 12 13 12 12 11 10 9 8 7 8 8 7 7 7 7 7 7 6 6 5 5 4
3 2 4 9 2 0 4 3 2 4 5 16 8 7 12 3 12 5 18 15 15 14 15 14 13 12 11 11 9 8 7 7 7 7 8 8 8 7 7 6 6 5 4 5
2 3 5 5 5 7 6 9 6 1 3 11 16 15 25 16 13 3 13 16 17 16 17 14 13 12 12 11 10 9 7 8 7 7 8 8 7 7 6 6 6 5 4 4
3 5 6 12 16 16 14 15 10 9 8 4 6 14 18 14 11 14 16 17 18 17 17 15 14 13 11 11 10 9 8 7 7 7 8 8 6 6 6 5 5 3 4 4
8 4 4 16 18 18 18 14 14 13 12 11 18 21 18 13 1 12 18 20 18 18 17 16 16 15 13 13 11 10 8 7 7 7 8 8 8 6 6 6 5 3 4 4
8 4 2 7 14 8 6 13 11 5 8 4 7 6 14 6 8 5 13 18 19 18 17 17 17 15 14 13 11 10 8 7 8 9 9 9 7 6 6 6 5 4 4 4
6 4 3 5 9 5 3 11 9 13 11 9 12 18 13 3 6 7 8 10 18 18 17 16 15 14 14 12 10 8 9 9 9 10 10 8 8 6 5 6 6 4 3 5
11 4 2 3 3 4 3 8 7 6 5 4 11 9 9 5 7 6 6 5 12 18 17 16 15 14 11 13 10 12 10 9 9 10 8 8 8 7 6 6 6 3 4 4
2 9 7 2 4 3 2 12 13 9 3 6 13 7 3 7 4 2 4 7 4 8 9 14 14 13 14 9 11 14 11 9 8 11 10 9 7 7 7 6 6 3 2 4
2 2 10 8 3 4 6 17 23 6 1 18 14 13 6 7 4 5 7 2 3 3 12 13 15 15 14 11 13 13 10 10 9 12 12 9 8 8 7 6 3 4 3 5
3 3 2 2 2 2 12 15 5 5 8 13 15 9 4 10 6 1 1 3 7 7 14 16 14 13 12 11 13 12 10 8 9 12 12 9 7 6 6 7 4 4 5 6
2 3 3 4 2 6 14 10 13 11 12 12 13 12 14 10 5 5 7 7 8 7 11 12 13 11 11 10 12 12 11 8 10 11 9 8 7 7 7 6 6 4 5 4
2 4 1 3 3 7 15 14 12 12 12 17 18 8 15 13 9 8 12 12 11 9 5 6 12 13 11 7 10 12 8 9 14 13 10 9 9 7 6 4 4 5 4 4
1 2 5 4 7 5 9 10 13 15 17 19 12 16 15 15 12 10 13 14 12 11 9 7 10 10 11 8 8 9 8 11 12 13 11 10 7 7 6 4 2 4 5 6
3 2 2 2 6 4 6 8 8 14 17 24 8 14 14 16 14 13 13 11 10 13 13 7 6 9 9 9 10 8 9 12 13 11 10 9 8 5 5 5 3 6 2 5
Wind_Direction
240 193 220 217 225 275 269 262 253 244 199 218 241 262 258 250 252 258 265 269 261 261 252 258 253 244 214 194 183 194 169 169 155 161 152 153 155 148 132 140 140 146 164 161
222 232 247 274 269 229 245 265 264 301 276 216 243 251 263 265 262 256 259 260 255 248 257 255 239 221 211 205 206 173 179 169 169 168 170 120 141 113 144 147 162 174 178 166
216 227 246 246 252 248 242 234 261 265 296 292 300 281 247 261 257 255 256 253 250 242 248 255 243 224 178 193 189 169 162 152 148 127 113 94 85 80 91 78 127 162 160 156
254 244 248 261 234 234 249 251 241 248 261 266 217 280 259 262 267 262 245 248 251 266 249 246 240 214 188 172 136 126 127 126 135 135 122 140 131 143 158 149 128 134 149 156
226 281 263 228 242 234 250 255 231 252 238 248 248 273 267 208 250 252 253 245 251 253 255 256 245 195 176 145 134 125 121 121 135 115 127 133 125 130 136 110 122 134 154 148
232 219 247 250 260 259 290 231 243 260 224 254 228 220 275 237 240 245 241 270 262 261 264 250 174 134 132 124 117 123 125 125 117 112 123 129 139 134 113 111 122 132 126 137
280 246 228 236 255 264 241 142 233 230 197 234 183 218 240 270 249 242 249 250 258 262 218 147 132 132 127 124 122 120 126 120 115 111 114 125 131 127 132 136 136 143 141 186
214 258 192 20 40 227 187 171 183 193 200 278 240 241 240 236 257 256 252 253 163 146 120 116 115 119 123 123 115 120 120 121 115 113 115 108 113 115 121 138 142 153 179 171
7 228 341 324 318 112 318 216 194 276 277 301 233 268 275 258 266 262 252 168 176 153 135 128 116 118 120 116 123 126 119 117 117 119 110 101 107 114 126 132 141 162 159 154
332 304 256 309 348 246 191 258 163 215 217 240 255 252 236 252 284 277 251 174 153 134 130 128 126 126 115 121 122 111 116 122 122 119 117 122 123 119 126 130 134 144 152 155
348 208 285 338 227 229 351 227 198 173 195 219 298 255 244 250 267 279 198 165 153 150 146 136 132 126 125 125 120 122 122 120 123 123 123 126 135 128 132 132 142 162 156 177
314 266 275 250 248 262 244 253 172 206 250 249 210 265 260 271 282 269 163 155 144 147 137 132 132 132 136 131 131 132 127 129 138 141 138 140 128 126 133 146 158 160 165 186
337 312 308 310 268 206 224 111 6 270 230 245 216 257 263 340 328 326 148 148 145 134 136 135 135 141 145 142 141 137 143 144 150 152 135 144 137 138 148 156 161 160 160 221
337 217 226 243 305 332 282 290 305 352 269 245 236 264 259 280 305 112 141 143 142 141 142 142 144 145 149 148 149 150 157 155 160 146 145 135 146 151 159 153 171 166 200 250
181 235 251 270 269 270 252 263 269 254 256 258 287 271 290 274 270 185 158 143 140 145 148 148 149 149 150 149 153 160 163 160 161 158 143 144 146 147 153 153 168 185 223 238
185 243 259 290 275 247 239 231 237 241 264 260 264 278 269 339 212 146 160 147 147 152 153 154 152 153 156 161 162 169 167 160 149 153 136 143 143 148 165 163 165 171 228 225
179 211 261 274 315 188 227 236 237 197 190 198 253 254 309 38 359 344 156 151 153 157 160 159 160 160 164 170 164 172 156 152 154 140 143 144 151 157 169 165 156 168 176 120
213 182 216 280 271 210 96 31 0 187 216 212 268 251 259 218 147 65 355 163 154 162 165 162 162 162 167 167 165 148 144 147 145 148 154 157 147 153 164 145 151 142 135 122
201 169 263 257 244 289 92 27 1 18 257 292 323 152 118 45 62 15 16 309 172 169 168 166 163 162 160 165 161 148 148 148 143 157 152 159 146 160 163 149 152 159 142 134
139 189 200 270 287 243 85 310 321 311 252 308 337 357 325 106 98 250 253 256 92 131 150 160 159 155 155 159 155 151 151 149 157 158 156 160 157 162 154 151 156 159 164 145
107 89 221 226 246 277 16 310 294 207 332 317 326 334 317 76 151 217 253 340 356 136 156 152 153 158 161 154 154 155 152 162 169 159 155 154 160 159 159 137 137 146 129 118
1 281 236 220 243 286 313 289 84 329 319 334 327 315 76 25 342 263 344 28 27 18 149 152 150 154 156 156 157 158 166 168 157 163 155 155 145 154 144 139 128 120 119 112
352 357 313 1 40 280 276 16 7 356 352 311 317 283 96 66 19 0 38 47 26 12 147 147 146 147 162 160 163 164 185 139 150 149 150 147 141 141 144 137 142 126 126 130
341 32 332 236 30 26 12 354 357 341 340 304 278 78 70 74 51 34 37 36 41 27 87 132 143 154 167 164 168 172 164 142 152 152 148 148 148 142 134 138 140 138 153 151
261 326 326 316 352 349 8 353 333 341 331 340 6 50 58 57 46 37 37 28 33 35 30 156 155 164 173 167 172 171 155 143 154 154 153 154 151 154 138 101 153 167 193 178
329 334 34 351 283 338 319 262 357 9 339 334 359 43 46 53 42 34 34 21 22 31 24 47 154 157 169 178 175 171 149 148 153 156 156 160 158 156 149 144 127 65 37 272